Regional Weather Roundup
Issued by NWS Sioux Falls, SD

Home | Current Version | Previous Version | Text Only | Print | Product List | Glossary On
Versions: 1 2 3 4 5 6 7 8 9 10 11 12 13 14 15 16 17 18 19 20 21 22 23 24 25 26 27 28 29 30 31 32 33 34 35 36 37 38 39 40 41 42 43 44 45 46 47 48 49 50
000
ASUS43 KFSD 241202
RWRFSD

WEATHER ROUNDUP FOR SE SOUTH DAKOTA/SW MINNESOTA/NW IOWA
NATIONAL WEATHER SERVICE SIOUX FALLS SD
700 AM CDT WED MAY 24 2017

NOTE: "FAIR" INDICATES FEW OR NO CLOUDS BELOW 12,000 FEET WITH NO
SIGNIFICANT WEATHER AND OR OBSTRUCTIONS TO VISIBILITY.


SDZ038>040-050-052>070-241300-
SOUTHEAST SOUTH DAKOTA

CITY           SKY/WX    TMP DP  RH WIND       PRES   REMARKS
BROOKINGS      CLOUDY    44  43  96 CALM      29.82S
CHAMBERLAIN    CLOUDY    38  38 100 CALM      29.85S
6HR MIN TEMP:  36; 6HR MAX TEMP:  47;

HURON          PTCLDY    36  36 100 CALM      29.83F FOG
6HR MIN TEMP:  33; 6HR MAX TEMP:  38;

MADISON        FAIR      41  41 100 N8        29.82S
MITCHELL       CLEAR     41  40  96 NW5       29.84F FOG
6HR MIN TEMP:  38; 6HR MAX TEMP:  46;

SIOUX FALLS    PTSUNNY   45  44  97 NE5       29.81F
6HR MIN TEMP:  43; 6HR MAX TEMP:  47;

WINNER         FAIR      38  36  92 SW5       29.85F
YANKTON          N/A     43  42  97 NW13      29.83S
$$

MNZ071-072-080-081-089-090-097-098-241300-
SOUTHWEST MINNESOTA

CITY           SKY/WX    TMP DP  RH WIND       PRES   REMARKS
FAIRMONT       CLOUDY    45  44  97 N10       29.78R
JACKSON        CLOUDY    45  45 100 N7        29.79R
LUVERNE        CLOUDY    45  43  93 N7        29.81S
MARSHALL       PTSUNNY   45  44  97 N9        29.83S
6HR MIN TEMP:  42; 6HR MAX TEMP:  48;

MONTEVIDEO     CLOUDY    45  45 100 N5        29.82F
PIPESTONE      CLOUDY    48  43  81 NE6       29.80F
REDWOOD FALLS  MOSUNNY   46  43  89 N6        29.80S
TRACY          CLOUDY    46  46 100 NW8       29.82S
WINDOM         MOSUNNY   46  45  93 N10       29.79S
WORTHINGTON    FOG       45  45 100 N10       29.81R VSB 1
$$

IAZ001>003-012>014-020>022-031-032-NEZ013-014-SDZ071-241300-
NORTHWEST IOWA

CITY           SKY/WX    TMP DP  RH WIND       PRES   REMARKS
CHEROKEE       SUNNY     45  45 100 N6        29.78R
DENISON        MOSUNNY   46  45  93 CALM      29.78R
ESTHERVILLE    CLOUDY    45  45 100 N13       29.76S
LE MARS        SUNNY     46  45  93 N5        29.81S
ORANGE CITY    SUNNY     45  45 100 N8        29.80R
SHELDON        PTSUNNY   43  43 100 NW9         N/A
SIOUX CITY     MOCLDY    46  46 100 NW12      29.81R
6HR MIN TEMP:  45; 6HR MAX TEMP:  48;

SPENCER        SUNNY     47  45  93 N13       29.78R
6HR MIN TEMP:  45; 6HR MAX TEMP:  50;

STORM LAKE     SUNNY     46  45  93 N12       29.76S
$$

ABBREVIATIONS USED IN REMARKS
   TC - TEMPERATURE IN CELSIUS
  WCI - WIND CHILL INDEX
   HX - HEAT INDEX
  VSB - VISIBILITY





USA.gov is the U.S. government's official web portal to all federal, state and local government web resources and services.